Weather History for Chariton, IA

Change the Weather History Date:

Wednesday, September 19, 2012

  Actual Average Record
Temperature  
Mean Temperature 66 °F -  
Max Temperature 84 °F 76 °F 96 °F (1948)
Min Temperature 48 °F 54 °F 31 °F (1991)
Cooling Degree Days 1    
Growing Degree Days 16 (Base 50)    
Moisture  
Dew Point 44 °F    
Average Humidity 46    
Maximum Humidity 71    
Minimum Humidity 26    
Precipitation  
Precipitation 0.13 in - - ()
Sea Level Pressure  
Sea Level Pressure 29.91 in    
Wind  
Wind Speed 11 mph (SSW)    
Max Wind Speed 22 mph    
Max Gust Speed 30 mph    
Visibility 10 miles    
Events Rain    
Averages and records for this station are not official NWS values.
T = Trace of Precipitation, MM = Missing Value Source: NWS Daily Summary

Daily Weather History Graph

Daily Weather History Graph

Search for Another Location

Airport:

Trip Planner

Search our weather history database for the weather conditions in past years. The results will help you decide how hot, cold, wet, or windy it might be!

Date:

Astronomy

Sep. 19, 2012 Rise Set
Actual Time 6:58 AM CDT 7:14 PM CDT
Civil Twilight 6:30 AM CDT 7:42 PM CDT
Nautical Twilight 5:58 AM CDT 8:14 PM CDT
Astronomical Twilight 5:25 AM CDT 8:47 PM CDT
Moon 11:11 AM CDT (9/19) 9:22 PM CDT (9/19)
Length of Visible Light 13h 11m
Length of Day
12h 16m
Waxing Crescent, 17% of the Moon is Illuminated
Sep 19
Waxing Crescent
Sep 22
First Quarter
Sep 29
Full
Oct 8
Last Quarter
Oct 15
New

Hourly Weather History & Observations

Time (CDT) Temp. Dew Point Humidity Pressure Visibility Wind Dir Wind Speed Gust Speed Precip Events Conditions
12:15 AM 48.2 °F 39.2 °F 71% 30.02 in 10.0 mi South 5.8 mph - N/A   Clear
12:35 AM 48.2 °F 39.2 °F 71% 30.02 in 10.0 mi South 5.8 mph - N/A   Clear
12:55 AM 48.2 °F 39.2 °F 71% 30.01 in 10.0 mi South 6.9 mph - N/A   Clear
1:15 AM 50.0 °F 39.2 °F 66% 30.01 in 10.0 mi South 6.9 mph - N/A   Clear
1:35 AM 50.0 °F 39.2 °F 66% 30.00 in 10.0 mi South 8.1 mph - N/A   Clear
1:55 AM 50.0 °F 39.2 °F 66% 30.01 in 10.0 mi South 8.1 mph - N/A   Clear
2:15 AM 50.0 °F 39.2 °F 66% 30.00 in 10.0 mi South 9.2 mph - N/A   Clear
2:35 AM 51.8 °F 37.4 °F 58% 30.00 in 10.0 mi South 8.1 mph - N/A   Clear
2:55 AM 50.0 °F 37.4 °F 62% 29.99 in 10.0 mi South 8.1 mph - N/A   Clear
3:15 AM 51.8 °F 37.4 °F 58% 29.99 in 10.0 mi South 9.2 mph - N/A   Clear
3:35 AM 51.8 °F 37.4 °F 58% 29.99 in 10.0 mi South 9.2 mph - N/A   Clear
3:55 AM 51.8 °F 37.4 °F 58% 29.99 in 10.0 mi South 8.1 mph - N/A   Clear
4:15 AM 51.8 °F 39.2 °F 62% 29.98 in 10.0 mi South 8.1 mph - N/A   Clear
4:55 AM 51.8 °F 39.2 °F 62% 29.98 in 10.0 mi South 8.1 mph - N/A   Clear
5:15 AM 53.6 °F 39.2 °F 58% 29.97 in 10.0 mi South 10.4 mph - N/A   Clear
5:35 AM 53.6 °F 39.2 °F 58% 29.97 in 10.0 mi South 11.5 mph 18.4 mph N/A   Clear
5:55 AM 53.6 °F 39.2 °F 58% 29.96 in 10.0 mi South 12.7 mph - N/A   Clear
6:15 AM 53.6 °F 39.2 °F 58% 29.96 in 10.0 mi South 11.5 mph - N/A   Clear
6:35 AM 55.4 °F 39.2 °F 54% 29.95 in 10.0 mi South 12.7 mph 19.6 mph N/A   Clear
6:55 AM 55.4 °F 39.2 °F 54% 29.94 in 10.0 mi South 15.0 mph 19.6 mph N/A   Clear
7:15 AM 55.4 °F 39.2 °F 54% 29.94 in 10.0 mi South 15.0 mph - N/A   Clear
7:35 AM 55.4 °F 41.0 °F 58% 29.94 in 10.0 mi South 13.8 mph 19.6 mph N/A   Clear
7:55 AM 55.4 °F 41.0 °F 58% 29.93 in 10.0 mi South 16.1 mph 23.0 mph N/A   Clear
8:15 AM 57.2 °F 41.0 °F 55% 29.93 in 10.0 mi South 19.6 mph 26.5 mph N/A   Clear
8:35 AM 59.0 °F 42.8 °F 55% 29.92 in 10.0 mi South 18.4 mph 25.3 mph N/A   Clear
8:55 AM 60.8 °F 42.8 °F 52% 29.92 in 10.0 mi South 20.7 mph 25.3 mph N/A   Clear
9:15 AM 62.6 °F 44.6 °F 52% 29.91 in 10.0 mi South 19.6 mph 25.3 mph N/A   Clear
9:55 AM 66.2 °F 44.6 °F 46% 29.91 in 10.0 mi SSW 21.9 mph 29.9 mph N/A   Clear
10:15 AM 68.0 °F 44.6 °F 43% 29.91 in 10.0 mi SSW 19.6 mph 29.9 mph N/A   Clear
10:35 AM 69.8 °F 46.4 °F 43% 29.91 in 10.0 mi SSW 17.3 mph 26.5 mph N/A   Clear
10:55 AM 69.8 °F 46.4 °F 43% 29.91 in 10.0 mi SW 16.1 mph - N/A   Clear
11:15 AM 71.6 °F 46.4 °F 41% 29.91 in 10.0 mi SSW 19.6 mph 23.0 mph N/A   Clear
11:35 AM 71.6 °F 46.4 °F 41% 29.91 in 10.0 mi SSW 19.6 mph 25.3 mph N/A   Clear
11:55 AM 73.4 °F 48.2 °F 41% 29.90 in 10.0 mi SSW 19.6 mph 25.3 mph N/A   Clear
12:15 PM 75.2 °F 48.2 °F 38% 29.89 in 10.0 mi SW 15.0 mph 26.5 mph N/A   Clear
12:35 PM 77.0 °F 48.2 °F 36% 29.87 in 10.0 mi South 19.6 mph 26.5 mph N/A   Clear
12:55 PM 77.0 °F 48.2 °F 36% 29.87 in 10.0 mi SSW 13.8 mph 19.6 mph N/A   Clear
1:15 PM 78.8 °F 46.4 °F 32% 29.86 in 10.0 mi SSW 17.3 mph 25.3 mph N/A   Clear
1:35 PM 78.8 °F 48.2 °F 34% 29.85 in 10.0 mi South 15.0 mph 24.2 mph N/A   Clear
1:55 PM 80.6 °F 46.4 °F 30% 29.84 in 10.0 mi SSW 17.3 mph 24.2 mph N/A   Clear
2:15 PM 80.6 °F 46.4 °F 30% 29.83 in 10.0 mi SSW 19.6 mph 24.2 mph N/A   Clear
2:35 PM 80.6 °F 46.4 °F 30% 29.83 in 10.0 mi SSW 18.4 mph 25.3 mph N/A   Clear
2:55 PM 82.4 °F 46.4 °F 28% 29.81 in 10.0 mi SSW 17.3 mph 29.9 mph N/A   Clear
3:15 PM 82.4 °F 46.4 °F 28% 29.81 in 10.0 mi SSW 18.4 mph 27.6 mph N/A   Clear
3:35 PM 82.4 °F 46.4 °F 28% 29.80 in 10.0 mi South 19.6 mph 26.5 mph N/A   Clear
3:55 PM 82.4 °F 44.6 °F 26% 29.80 in 10.0 mi SSW 18.4 mph 24.2 mph N/A   Clear
4:15 PM 82.4 °F 46.4 °F 28% 29.80 in 10.0 mi SSW 17.3 mph 26.5 mph N/A   Clear
4:35 PM 84.2 °F 48.2 °F 29% 29.79 in 10.0 mi SSW 16.1 mph 24.2 mph N/A   Clear
4:55 PM 84.2 °F 48.2 °F 29% 29.80 in 10.0 mi SSW 16.1 mph 21.9 mph N/A   Clear
5:15 PM 84.2 °F 46.4 °F 27% 29.81 in 10.0 mi SW 12.7 mph 21.9 mph N/A   Clear
5:35 PM 82.4 °F 48.2 °F 30% 29.81 in 10.0 mi SW 13.8 mph 17.3 mph N/A   Clear
5:55 PM 82.4 °F 50.0 °F 32% 29.81 in 10.0 mi SW 10.4 mph - N/A   Clear
6:15 PM 82.4 °F 50.0 °F 32% 29.80 in 10.0 mi SW 10.4 mph - N/A   Clear
6:35 PM 80.6 °F 51.8 °F 37% 29.81 in 10.0 mi SW 9.2 mph - N/A   Clear
6:55 PM 78.8 °F 51.8 °F 39% 29.81 in 10.0 mi SW 6.9 mph - N/A   Scattered Clouds
7:15 PM 75.2 °F 57.2 °F 53% 29.84 in 5.0 mi WSW 15.0 mph 24.2 mph 0.11 in Rain Heavy Rain
7:35 PM 71.6 °F 60.8 °F 69% 29.84 in 10.0 mi WNW 10.4 mph - 0.13 in   Mostly Cloudy
7:55 PM 69.8 °F 57.2 °F 64% 29.85 in 10.0 mi WNW 11.5 mph 16.1 mph 0.13 in   Overcast
8:15 PM 69.8 °F 53.6 °F 56% 29.87 in 10.0 mi WNW 9.2 mph - N/A   Mostly Cloudy
8:35 PM 69.8 °F 48.2 °F 46% 29.88 in 10.0 mi NW 10.4 mph - N/A   Scattered Clouds
8:55 PM 68.0 °F 46.4 °F 46% 29.89 in 10.0 mi NW 9.2 mph - N/A   Clear
9:15 PM 68.0 °F 44.6 °F 43% 29.91 in 10.0 mi NW 9.2 mph - N/A   Clear
9:35 PM 69.8 °F 39.2 °F 33% 29.92 in 10.0 mi NNW 10.4 mph - N/A   Clear
9:55 PM 66.2 °F 41.0 °F 40% 29.92 in 10.0 mi NW 6.9 mph - N/A   Clear
10:15 PM 68.0 °F 37.4 °F 33% 29.93 in 10.0 mi NW 12.7 mph - N/A   Clear
10:35 PM 68.0 °F 35.6 °F 30% 29.94 in 10.0 mi NNW 12.7 mph 19.6 mph N/A   Clear
10:55 PM 66.2 °F 33.8 °F 30% 29.96 in 10.0 mi NNW 11.5 mph 17.3 mph N/A   Clear
11:15 PM 64.4 °F 35.6 °F 34% 29.96 in 10.0 mi NNW 9.2 mph - N/A   Clear
11:35 PM 62.6 °F 35.6 °F 37% 29.97 in 10.0 mi NW 8.1 mph - N/A   Clear
11:55 PM 62.6 °F 37.4 °F 39% 29.98 in 10.0 mi NW 6.9 mph - N/A   Clear